Location: Newark
(34.1333°N, 7.9667°W)
Time: 10:35:37
(UTC+00:00)

COSMOS 2251 DEB - Pass Details

Date: 22 February 2024
Orbit: 726 x 941 km, 73.7° (Epoch: 12 April)

Event Time Altitude Azimuth Distance (km) Brightness Sun altitude
Rises 04:49:13 0° 150° (SSE) 3,590 ? -29.8°
Reaches altitude 10° 04:52:50 10° 129° (SE) 2,649 ? -29.0°
Maximum altitude 04:56:14 15° 95° (E) 2,269 ? -28.3°
Drops below altitude 10° 04:59:37 10° 61° (ENE) 2,628 ? -27.6°
Sets 05:03:09 0° 40° (NE) 3,546 ? -26.9°
